,,,PA_Meas_PMT16A,,PR_Meas_QMR101_102,,RH_Meas_QMH101,,SR_Meas_QMS101,,TA_Meas_QMH101,,GenWind,,GenWind,
date,time,status,PA,status,PR,status,RH,status,SR,status,TA,status,DirAvg,status,SpdAvg,
2011-04-07, 00:00:04,VALID,1004.98,VALID,0,VALID,91.7144,VALID,0,VALID,26.3907,VALID,339,VALID,0.755078,
2011-04-07, 00:01:04,VALID,1005.03,VALID,0,VALID,91.7907,VALID,0,VALID,26.3498,VALID,353,VALID,1.36445,
2011-04-07, 00:02:04,VALID,1004.97,VALID,0,VALID,91.8365,VALID,0,VALID,26.3498,VALID,2,VALID,1.09258,
2011-04-07, 00:03:04,VALID,1004.99,VALID,0,VALID,91.8746,VALID,0,VALID,26.3498,VALID,360,VALID,1.06641,
2011-04-07, 00:04:04,VALID,1004.99,VALID,0,VALID,92.0196,VALID,0,VALID,26.3498,VALID,355,VALID,0.774219,
2011-04-07, 00:05:04,VALID,1005.03,VALID,0,VALID,92.1035,VALID,0,VALID,26.3303,VALID,351,VALID,1.07773,
2011-04-07, 00:06:04,VALID,1005.03,VALID,0,VALID,92.3171,VALID,0,VALID,26.3303,VALID,31,VALID,1.16953,
2011-04-07, 00:07:04,VALID,1005.04,VALID,0,VALID,92.1569,VALID,0,VALID,26.3498,VALID,351,VALID,0.740625,
2011-04-07, 00:08:04,VALID,1005.06,VALID,0,VALID,92.3323,VALID,0,VALID,26.3518,VALID,350,VALID,0.896875,
2011-04-07, 00:09:04,VALID,1005.09,VALID,0,VALID,92.4391,VALID,0,VALID,26.3518,VALID,354,VALID,1.01797,
2011-04-07, 00:10:04,VALID,1005.07,VALID,0,VALID,92.6528,VALID,0,VALID,26.3323,VALID,334,VALID,0.669531,
2011-04-07, 00:11:04,VALID,1005.05,VALID,0,VALID,92.729,VALID,0,VALID,26.2913,VALID,2,VALID,1.35078,
2011-04-07, 00:12:04,VALID,1005.03,VALID,0,VALID,92.8587,VALID,0,VALID,26.3128,VALID,358,VALID,0.457422,
2011-04-07, 00:13:04,VALID,1005.01,VALID,0,VALID,92.7138,VALID,0,VALID,26.2913,VALID,353,VALID,1.02344,
2011-04-07, 00:14:04,VALID,1005.01,VALID,0,VALID,92.6909,VALID,0,VALID,26.3108,VALID,356,VALID,0.897656,
2011-04-07, 00:15:04,VALID,1005.05,VALID,0,VALID,92.7824,VALID,0.100563,VALID,26.2894,VALID,349,VALID,1.45742,
2011-04-07, 00:16:04,VALID,1005.02,VALID,0,VALID,93.0647,VALID,0.100563,VALID,26.3108,VALID,345,VALID,0.904297,
2011-04-07, 00:17:04,VALID,1004.99,VALID,0,VALID,92.8206,VALID,0.100563,VALID,26.2913,VALID,351,VALID,1.21133,
2011-04-07, 00:18:04,VALID,1005.03,VALID,0,VALID,93.1029,VALID,0.100563,VALID,26.2504,VALID,343,VALID,1.14922,
2011-04-07, 00:19:04,VALID,1005.01,VALID,0,VALID,93.1868,VALID,0.100563,VALID,26.2504,VALID,306,VALID,0.588281,
2011-04-07, 00:20:04,VALID,1005,VALID,0,VALID,93.0647,VALID,0.100563,VALID,26.2504,VALID,355,VALID,1.87148,
2011-04-07, 00:21:04,VALID,1004.99,VALID,0,VALID,92.9045,VALID,0.100563,VALID,26.3128,VALID,350,VALID,0.660547,
2011-04-07, 00:22:04,VALID,1004.98,VALID,0,VALID,93.08,VALID,0.100563,VALID,26.2913,VALID,352,VALID,0.85625,
2011-04-07, 00:23:04,VALID,1004.95,VALID,0,VALID,92.9198,VALID,0.100563,VALID,26.2719,VALID,347,VALID,1.45938,
2011-04-07, 00:24:04,VALID,1004.97,VALID,0,VALID,92.8892,VALID,0.100563,VALID,26.2699,VALID,359,VALID,0.941406,
2011-04-07, 00:25:04,VALID,1004.95,VALID,0,VALID,93.0418,VALID,0.100563,VALID,26.2913,VALID,355,VALID,1.57539,
2011-04-07, 00:26:04,VALID,1004.91,VALID,0,VALID,92.9121,VALID,0.100563,VALID,26.2504,VALID,4,VALID,1.50469,
2011-04-07, 00:27:04,VALID,1004.89,VALID,0,VALID,93.2173,VALID,0.100563,VALID,26.2309,VALID,339,VALID,0.570703,
2011-04-07, 00:28:04,VALID,1004.86,VALID,0,VALID,93.0113,VALID,0.100563,VALID,26.2719,VALID,346,VALID,2.01836,
2011-04-07, 00:29:04,VALID,1004.87,VALID,0,VALID,92.9274,VALID,0,VALID,26.2933,VALID,346,VALID,1.44609,
2011-04-07, 00:30:04,VALID,1004.85,VALID,0,VALID,93.0113,VALID,0,VALID,26.2719,VALID,355,VALID,0.787891,
2011-04-07, 00:31:04,VALID,1004.83,VALID,0,VALID,93.3317,VALID,0,VALID,26.2524,VALID,348,VALID,1.025,
2011-04-07, 00:32:04,VALID,1004.85,VALID,0,VALID,93.2936,VALID,0,VALID,26.2544,VALID,348,VALID,0.884766,
2011-04-07, 00:33:04,VALID,1004.84,VALID,0,VALID,93.5758,VALID,0,VALID,26.2544,VALID,358,VALID,0.802734,
2011-04-07, 00:34:04,VALID,1004.81,VALID,0,VALID,93.8429,VALID,0,VALID,26.2134,VALID,3,VALID,0.421484,
2011-04-07, 00:35:04,VALID,1004.78,VALID,0,VALID,93.9039,VALID,0,VALID,26.2349,VALID,345,VALID,0.771875,
2011-04-07, 00:36:04,VALID,1004.78,VALID,0,VALID,93.9878,VALID,0,VALID,26.2134,VALID,333,VALID,0.583984,
2011-04-07, 00:37:04,VALID,1004.78,VALID,0,VALID,94.0031,VALID,0,VALID,26.2134,VALID,310,VALID,0.3625,
2011-04-07, 00:38:04,VALID,1004.78,VALID,0,VALID,94.1099,VALID,0,VALID,26.2134,VALID,13,VALID,0.457812,
2011-04-07, 00:39:04,VALID,1004.8,VALID,0,VALID,94.3464,VALID,0,VALID,26.2349,VALID,336,VALID,0.602734,
2011-04-07, 00:40:04,VALID,1004.81,VALID,0,VALID,94.0412,VALID,0,VALID,26.2154,VALID,326,VALID,0.295703,
2011-04-07, 00:41:04,VALID,1004.85,VALID,0,VALID,94.2243,VALID,0,VALID,26.194,VALID,4,VALID,0.436719,
2011-04-07, 00:42:04,VALID,1004.84,VALID,0,VALID,94.3006,VALID,0,VALID,26.2154,VALID,344,VALID,0.234766,
2011-04-07, 00:43:04,VALID,1004.8,VALID,0,VALID,94.5676,VALID,0,VALID,26.2154,VALID,292,VALID,0.717969,
2011-04-07, 00:44:04,VALID,1004.8,VALID,0,VALID,94.7354,VALID,0,VALID,26.194,VALID,319,VALID,0.526953,
2011-04-07, 00:45:04,VALID,1004.79,VALID,0,VALID,94.7965,VALID,0,VALID,26.194,VALID,347,VALID,0.642187,
2011-04-07, 00:46:04,VALID,1004.79,VALID,0,VALID,94.9948,VALID,0,VALID,26.155,VALID,360,VALID,0.663672,
2011-04-07, 00:47:04,VALID,1004.81,VALID,0,VALID,95.3305,VALID,0,VALID,26.1745,VALID,2,VALID,0.945313,
2011-04-07, 00:48:04,VALID,1004.83,VALID,0,VALID,95.3839,VALID,0,VALID,26.153,VALID,351,VALID,0.691797,
2011-04-07, 00:49:04,VALID,1004.8,VALID,0,VALID,95.5975,VALID,0,VALID,26.155,VALID,358,VALID,1.11055,
2011-04-07, 00:50:04,VALID,1004.79,VALID,0,VALID,95.361,VALID,0,VALID,26.1745,VALID,347,VALID,1.05156,
2011-04-07, 00:51:04,VALID,1004.78,VALID,0,VALID,95.2695,VALID,0,VALID,26.194,VALID,348,VALID,0.695313,
2011-04-07, 00:52:04,VALID,1004.77,VALID,0,VALID,95.2084,VALID,0,VALID,26.1745,VALID,340,VALID,0.398047,
2011-04-07, 00:53:04,VALID,1004.74,VALID,0,VALID,95.0635,VALID,0.100563,VALID,26.1745,VALID,346,VALID,0.788281,
2011-04-07, 00:54:04,VALID,1004.72,VALID,0,VALID,94.8651,VALID,0,VALID,26.194,VALID,358,VALID,1.20313,
2011-04-07, 00:55:04,VALID,1004.71,VALID,0,VALID,94.8575,VALID,0.100563,VALID,26.2329,VALID,293,VALID,0.460156,
2011-04-07, 00:56:04,VALID,1004.7,VALID,0,VALID,94.6134,VALID,0,VALID,26.192,VALID,334,VALID,0.406641,
2011-04-07, 00:57:04,VALID,1004.69,VALID,0,VALID,94.7965,VALID,0,VALID,26.2134,VALID,347,VALID,0.751172,
2011-04-07, 00:58:04,VALID,1004.68,VALID,0,VALID,94.6134,VALID,0,VALID,26.2154,VALID,319,VALID,0.309766,
2011-04-07, 00:59:04,VALID,1004.68,VALID,0,VALID,94.8117,VALID,0,VALID,26.1959,VALID,316,VALID,0.363672,
2011-04-07, 01:00:04,VALID,1004.67,VALID,0,VALID,94.827,VALID,0,VALID,26.2154,VALID,353,VALID,0.733203,
2011-04-07, 01:01:04,VALID,1004.63,VALID,0,VALID,94.5676,VALID,0,VALID,26.1745,VALID,344,VALID,0.663281,
2011-04-07, 01:02:04,VALID,1004.62,VALID,0,VALID,94.7278,VALID,0,VALID,26.1745,VALID,5,VALID,0.273047,
2011-04-07, 01:03:04,VALID,1004.6,VALID,0,VALID,94.5447,VALID,0,VALID,26.1959,VALID,342,VALID,0.937109,
2011-04-07, 01:04:04,VALID,1004.6,VALID,0,VALID,94.949,VALID,0,VALID,26.1765,VALID,357,VALID,0.341016,
2011-04-07, 01:05:04,VALID,1004.53,VALID,0,VALID,94.8575,VALID,0,VALID,26.1765,VALID,357,VALID,0.482812,
2011-04-07, 01:06:04,VALID,1004.54,VALID,0,VALID,94.6973,VALID,0,VALID,26.1745,VALID,351,VALID,0.659766,
2011-04-07, 01:07:04,VALID,1004.53,VALID,0,VALID,94.3769,VALID,0,VALID,26.155,VALID,349,VALID,1.14844,
2011-04-07, 01:08:04,VALID,1004.51,VALID,0,VALID,94.3158,VALID,0,VALID,26.1959,VALID,321,VALID,0.690234,
2011-04-07, 01:09:04,VALID,1004.47,VALID,0,VALID,94.1633,VALID,0,VALID,26.2154,VALID,351,VALID,1.10664,
2011-04-07, 01:10:04,VALID,1004.47,VALID,0,VALID,94.1175,VALID,0,VALID,26.194,VALID,360,VALID,1.00703,
2011-04-07, 01:11:04,VALID,1004.44,VALID,0,VALID,93.5453,VALID,0,VALID,26.2349,VALID,355,VALID,1.0707,
2011-04-07, 01:12:04,VALID,1004.43,VALID,0,VALID,93.2859,VALID,0,VALID,26.2544,VALID,349,VALID,0.984766,
2011-04-07, 01:13:04,VALID,1004.41,VALID,0,VALID,92.9579,VALID,0,VALID,26.2329,VALID,348,VALID,1.1375,
2011-04-07, 01:14:04,VALID,1004.36,VALID,0,VALID,92.7901,VALID,0,VALID,26.2913,VALID,359,VALID,1.08125,
2011-04-07, 01:15:04,VALID,1004.34,VALID,0,VALID,92.6146,VALID,0.100563,VALID,26.2699,VALID,358,VALID,0.824609,
2011-04-07, 01:16:04,VALID,1004.35,VALID,0,VALID,92.5688,VALID,0.100563,VALID,26.3108,VALID,347,VALID,0.729688,
2011-04-07, 01:17:04,VALID,1004.29,VALID,0,VALID,92.6985,VALID,0,VALID,26.2699,VALID,341,VALID,0.503516,
2011-04-07, 01:18:04,VALID,1004.28,VALID,0,VALID,92.4925,VALID,0,VALID,26.2913,VALID,356,VALID,1.55273,
2011-04-07, 01:19:04,VALID,1004.27,VALID,0,VALID,92.5002,VALID,0.100563,VALID,26.2913,VALID,360,VALID,0.919141,
2011-04-07, 01:20:04,VALID,1004.22,VALID,0,VALID,92.2179,VALID,0,VALID,26.2913,VALID,334,VALID,0.5,
2011-04-07, 01:21:04,VALID,1004.22,VALID,0,VALID,92.1798,VALID,0,VALID,26.3108,VALID,348,VALID,1.00156,
2011-04-07, 01:22:04,VALID,1004.21,VALID,0,VALID,91.8517,VALID,0.100563,VALID,26.2913,VALID,327,VALID,0.758203,
2011-04-07, 01:23:04,VALID,1004.2,VALID,0,VALID,91.8288,VALID,0,VALID,26.3303,VALID,352,VALID,0.922656,
2011-04-07, 01:24:04,VALID,1004.22,VALID,0,VALID,91.9967,VALID,0,VALID,26.3108,VALID,9,VALID,1.07813,
2011-04-07, 01:25:04,VALID,1004.24,VALID,0,VALID,91.8746,VALID,0,VALID,26.3303,VALID,290,VALID,0.609766,
2011-04-07, 01:26:04,VALID,1004.24,VALID,0,VALID,91.8288,VALID,0.100563,VALID,26.3303,VALID,360,VALID,0.500391,
2011-04-07, 01:27:04,VALID,1004.24,VALID,0,VALID,91.7831,VALID,0,VALID,26.3088,VALID,2,VALID,1.07344,
2011-04-07, 01:28:04,VALID,1004.24,VALID,0,VALID,92.2484,VALID,0.100563,VALID,26.3108,VALID,317,VALID,0.844922,
2011-04-07, 01:29:04,VALID,1004.23,VALID,0,VALID,92.0501,VALID,0,VALID,26.2719,VALID,10,VALID,0.702344,
2011-04-07, 01:30:04,VALID,1004.23,VALID,0,VALID,91.9356,VALID,0,VALID,26.2719,VALID,328,VALID,0.419922,
2011-04-07, 01:31:04,VALID,1004.22,VALID,0,VALID,92.2866,VALID,0,VALID,26.2933,VALID,341,VALID,0.616406,
2011-04-07, 01:32:04,VALID,1004.21,VALID,0,VALID,92.2332,VALID,0,VALID,26.2739,VALID,337,VALID,0.744922,
2011-04-07, 01:33:04,VALID,1004.24,VALID,0,VALID,92.2637,VALID,0,VALID,26.2544,VALID,343,VALID,0.735937,
2011-04-07, 01:34:04,VALID,1004.27,VALID,0,VALID,92.2713,VALID,0,VALID,26.2544,VALID,357,VALID,0.975,
2011-04-07, 01:35:04,VALID,1004.27,VALID,0,VALID,92.401,VALID,0,VALID,26.2329,VALID,334,VALID,0.729688,
2011-04-07, 01:36:04,VALID,1004.28,VALID,0,VALID,92.4773,VALID,0,VALID,26.2349,VALID,360,VALID,0.707031,
2011-04-07, 01:37:04,VALID,1004.3,VALID,0,VALID,92.5993,VALID,0,VALID,26.2349,VALID,360,VALID,0.626562,
2011-04-07, 01:38:04,VALID,1004.3,VALID,0,VALID,92.7596,VALID,0,VALID,26.2369,VALID,343,VALID,0.603516,
2011-04-07, 01:39:04,VALID,1004.3,VALID,0,VALID,92.7824,VALID,0,VALID,26.1745,VALID,358,VALID,0.8875,
2011-04-07, 01:40:04,VALID,1004.28,VALID,0,VALID,92.6833,VALID,0,VALID,26.1959,VALID,360,VALID,1.05313,
2011-04-07, 01:41:04,VALID,1004.28,VALID,0,VALID,92.5993,VALID,0,VALID,26.2154,VALID,320,VALID,0.228906,
2011-04-07, 01:42:04,VALID,1004.25,VALID,0,VALID,92.5002,VALID,0,VALID,26.2154,VALID,348,VALID,1.21602,
2011-04-07, 01:43:04,VALID,1004.23,VALID,0,VALID,92.4773,VALID,0,VALID,26.2154,VALID,351,VALID,0.848047,
2011-04-07, 01:44:04,VALID,1004.23,VALID,0,VALID,92.8969,VALID,0,VALID,26.1959,VALID,346,VALID,0.836328,
2011-04-07, 01:45:04,VALID,1004.23,VALID,0,VALID,92.6604,VALID,0,VALID,26.1765,VALID,355,VALID,1.07383,
2011-04-07, 01:46:04,VALID,1004.24,VALID,0,VALID,92.7596,VALID,0,VALID,26.1745,VALID,348,VALID,0.716797,
2011-04-07, 01:47:04,VALID,1004.26,VALID,0,VALID,92.3857,VALID,0,VALID,26.1959,VALID,356,VALID,0.872266,
2011-04-07, 01:48:04,VALID,1004.26,VALID,0,VALID,92.134,VALID,0,VALID,26.194,VALID,348,VALID,1.09258,
2011-04-07, 01:49:04,VALID,1004.24,VALID,0,VALID,91.7602,VALID,0,VALID,26.2349,VALID,346,VALID,1.54883,
2011-04-07, 01:50:04,VALID,1004.25,VALID,0,VALID,91.6305,VALID,0,VALID,26.2739,VALID,355,VALID,1.77539,
2011-04-07, 01:51:04,VALID,1004.27,VALID,0,VALID,91.5084,VALID,0,VALID,26.2739,VALID,345,VALID,1.02813,
2011-04-07, 01:52:04,VALID,1004.24,VALID,0,VALID,91.2872,VALID,0,VALID,26.2933,VALID,339,VALID,1.15078,
2011-04-07, 01:53:04,VALID,1004.2,VALID,0,VALID,91.5618,VALID,0,VALID,26.2719,VALID,358,VALID,0.690625,
2011-04-07, 01:54:04,VALID,1004.2,VALID,0,VALID,91.7449,VALID,0,VALID,26.2719,VALID,358,VALID,0.46875,
2011-04-07, 01:55:04,VALID,1004.19,VALID,0,VALID,91.6686,VALID,0,VALID,26.2739,VALID,358,VALID,0.451172,
2011-04-07, 01:56:04,VALID,1004.19,VALID,0,VALID,91.4245,VALID,0,VALID,26.2739,VALID,347,VALID,1.25,
2011-04-07, 01:57:04,VALID,1004.16,VALID,0,VALID,91.5618,VALID,0,VALID,26.2933,VALID,2,VALID,0.589453,
2011-04-07, 01:58:04,VALID,1004.13,VALID,0,VALID,91.7449,VALID,0,VALID,26.2524,VALID,3,VALID,0.200781,
2011-04-07, 01:59:04,VALID,1004.11,VALID,0,VALID,91.3482,VALID,0,VALID,26.2544,VALID,344,VALID,1.2168,
2011-04-07, 02:00:04,VALID,1004.08,VALID,0,VALID,91.4321,VALID,0,VALID,26.2739,VALID,358,VALID,0.994531,
2011-04-07, 02:01:04,VALID,1004.05,VALID,0,VALID,91.3253,VALID,0,VALID,26.2739,VALID,339,VALID,1.29102,
2011-04-07, 02:02:04,VALID,1004.04,VALID,0,VALID,91.4092,VALID,0,VALID,26.2933,VALID,352,VALID,0.672266,
2011-04-07, 02:03:04,VALID,1004.03,VALID,0,VALID,91.4932,VALID,0,VALID,26.2933,VALID,359,VALID,0.928906,
2011-04-07, 02:04:04,VALID,1004,VALID,0,VALID,91.4245,VALID,0,VALID,26.2739,VALID,349,VALID,0.814453,
2011-04-07, 02:05:04,VALID,1004.03,VALID,0,VALID,91.6152,VALID,0,VALID,26.2933,VALID,343,VALID,0.467578,
2011-04-07, 02:06:04,VALID,1004,VALID,0,VALID,91.4245,VALID,0,VALID,26.2739,VALID,350,VALID,0.832422,
2011-04-07, 02:07:04,VALID,1003.95,VALID,0,VALID,91.6381,VALID,0,VALID,26.2739,VALID,342,VALID,0.660547,
2011-04-07, 02:08:04,VALID,1003.96,VALID,0,VALID,91.6991,VALID,0,VALID,26.2739,VALID,358,VALID,0.752344,
2011-04-07, 02:09:04,VALID,1003.96,VALID,0,VALID,91.4779,VALID,0,VALID,26.2329,VALID,351,VALID,1.56602,
2011-04-07, 02:10:04,VALID,1003.95,VALID,0,VALID,91.7602,VALID,0,VALID,26.2544,VALID,354,VALID,0.707812,
2011-04-07, 02:11:04,VALID,1003.95,VALID,0,VALID,91.8136,VALID,0,VALID,26.2739,VALID,308,VALID,0.600391,
2011-04-07, 02:12:04,VALID,1004.03,VALID,0,VALID,91.8594,VALID,0,VALID,26.2524,VALID,276,VALID,0.31875,
2011-04-07, 02:13:04,VALID,1004.09,VALID,0,VALID,92.2866,VALID,0,VALID,26.2933,VALID,255,VALID,0.622266,
2011-04-07, 02:14:04,VALID,1004.12,VALID,0,VALID,91.7525,VALID,0,VALID,26.2739,VALID,290,VALID,2.17188,
2011-04-07, 02:15:04,VALID,1004.12,VALID,0,VALID,89.9903,VALID,0,VALID,26.2933,VALID,327,VALID,2.95313,
2011-04-07, 02:16:04,VALID,1004.17,VALID,0,VALID,89.8911,VALID,0,VALID,26.3713,VALID,263,VALID,1.68164,
2011-04-07, 02:17:04,VALID,1004.13,VALID,0,VALID,88.9833,VALID,0,VALID,26.4102,VALID,280,VALID,2.7168,
2011-04-07, 02:18:04,VALID,1004.19,VALID,0,VALID,88.4569,VALID,0,VALID,26.4297,VALID,281,VALID,2.27383,
2011-04-07, 02:19:04,VALID,1004.17,VALID,0,VALID,88.0296,VALID,0,VALID,26.4297,VALID,290,VALID,2.35195,
2011-04-07, 02:20:04,VALID,1004.16,VALID,0,VALID,88.0983,VALID,0,VALID,26.3887,VALID,272,VALID,2.10664,
2011-04-07, 02:21:04,VALID,1004.19,VALID,0,VALID,87.8237,VALID,0,VALID,26.4102,VALID,283,VALID,1.96172,
2011-04-07, 02:22:04,VALID,1004.24,VALID,0,VALID,88.5332,VALID,0,VALID,26.3907,VALID,295,VALID,1.56602,
2011-04-07, 02:23:04,VALID,1004.23,VALID,0,VALID,88.9222,VALID,0,VALID,26.3907,VALID,290,VALID,1.05195,
2011-04-07, 02:24:04,VALID,1004.22,VALID,0,VALID,87.3507,VALID,0,VALID,26.3128,VALID,346,VALID,1.78203,
2011-04-07, 02:25:04,VALID,1004.21,VALID,0,VALID,87.6406,VALID,0,VALID,26.2544,VALID,318,VALID,1.57813,
2011-04-07, 02:26:04,VALID,1004.19,VALID,0,VALID,87.2362,VALID,0,VALID,26.1959,VALID,279,VALID,1.70664,
2011-04-07, 02:27:04,VALID,1004.21,VALID,0,VALID,87.9076,VALID,0,VALID,26.118,VALID,276,VALID,2.02969,
2011-04-07, 02:28:04,VALID,1004.2,VALID,0,VALID,88.1212,VALID,0,VALID,26.0381,VALID,188,VALID,0.874219,
2011-04-07, 02:29:04,VALID,1004.23,VALID,0,VALID,88.6018,VALID,0,VALID,26.0226,VALID,336,VALID,0.664844,
2011-04-07, 02:30:04,VALID,1004.21,VALID,0,VALID,88.7162,VALID,0,VALID,25.9427,VALID,312,VALID,1.42852,
2011-04-07, 02:31:04,VALID,1004.19,VALID,0,VALID,89.0443,VALID,0,VALID,25.9038,VALID,349,VALID,1.01445,
2011-04-07, 02:32:04,VALID,1004.2,VALID,0,VALID,89.5325,VALID,0,VALID,25.8044,VALID,304,VALID,1.48438,
2011-04-07, 02:33:04,VALID,1004.18,VALID,0,VALID,89.7004,VALID,0,VALID,25.7674,VALID,302,VALID,1.4625,
2011-04-07, 02:34:04,VALID,1004.13,VALID,0,VALID,89.6241,VALID,0,VALID,25.7265,VALID,319,VALID,0.374219,
2011-04-07, 02:35:04,VALID,1004.09,VALID,0,VALID,89.6393,VALID,0,VALID,25.6895,VALID,298,VALID,1.97461,
2011-04-07, 02:36:04,VALID,1004.05,VALID,0,VALID,89.914,VALID,0,VALID,25.672,VALID,260,VALID,0.5875,
2011-04-07, 02:37:04,VALID,1004.03,VALID,0,VALID,90.0589,VALID,0,VALID,25.6116,VALID,283,VALID,0.360938,
2011-04-07, 02:38:04,VALID,1004,VALID,0,VALID,90.2268,VALID,0,VALID,25.5727,VALID,285,VALID,1.11953,
2011-04-07, 02:39:04,VALID,1003.98,VALID,0,VALID,90.5014,VALID,0,VALID,25.5318,VALID,290,VALID,0.226172,
2011-04-07, 02:40:04,VALID,1004.01,VALID,0,VALID,90.3031,VALID,0,VALID,25.5337,VALID,292,VALID,1.3125,
2011-04-07, 02:41:04,VALID,1004.03,VALID,0,VALID,90.4709,VALID,0,VALID,25.4948,VALID,298,VALID,0.976953,
2011-04-07, 02:42:04,VALID,1004.07,VALID,0,VALID,90.921,VALID,0,VALID,25.4734,VALID,238,VALID,0.183594,
2011-04-07, 02:43:04,VALID,1004.1,VALID,0,VALID,90.8981,VALID,0,VALID,25.4558,VALID,238,VALID,0.604297,
2011-04-07, 02:44:04,VALID,1004.14,VALID,0,VALID,91.2719,VALID,0.100563,VALID,25.4344,VALID,220,VALID,0.286719,
2011-04-07, 02:45:04,VALID,1004.15,VALID,0,VALID,91.394,VALID,0.100563,VALID,25.4149,VALID,290,VALID,0.736719,
2011-04-07, 02:46:04,VALID,1004.17,VALID,0,VALID,91.394,VALID,0.100563,VALID,25.376,VALID,292,VALID,1.40937,
2011-04-07, 02:47:04,VALID,1004.1,VALID,0,VALID,91.7525,VALID,0.100563,VALID,25.3565,VALID,304,VALID,0.353516,
2011-04-07, 02:48:04,VALID,1004.18,VALID,0,VALID,91.9814,VALID,0,VALID,25.3565,VALID,311,VALID,0.460156,
2011-04-07, 02:49:04,VALID,1004.19,VALID,0,VALID,91.9356,VALID,0.100563,VALID,25.3176,VALID,267,VALID,0.539844,
2011-04-07, 02:50:04,VALID,1004.18,VALID,0,VALID,92.2713,VALID,0.100563,VALID,25.2962,VALID,278,VALID,0.235938,
2011-04-07, 02:51:04,VALID,1004.22,VALID,0,VALID,92.3323,VALID,0,VALID,25.2786,VALID,285,VALID,0.338672,
2011-04-07, 02:52:04,VALID,1004.19,VALID,0,VALID,92.3934,VALID,0,VALID,25.2592,VALID,285,VALID,0.371875,
2011-04-07, 02:53:04,VALID,1004.21,VALID,0,VALID,92.874,VALID,0.100563,VALID,25.2397,VALID,342,VALID,0.655469,
2011-04-07, 02:54:04,VALID,1004.2,VALID,0,VALID,93.3317,VALID,0.100563,VALID,25.2007,VALID,296,VALID,0.575781,
2011-04-07, 02:55:04,VALID,1004.17,VALID,0,VALID,93.9039,VALID,0.100563,VALID,25.1404,VALID,308,VALID,0.494141,
2011-04-07, 02:56:04,VALID,1004.19,VALID,0,VALID,94.1022,VALID,0.100563,VALID,25.121,VALID,355,VALID,0.742188,
2011-04-07, 02:57:04,VALID,1004.16,VALID,0,VALID,95.3839,VALID,0.100563,VALID,25.1015,VALID,357,VALID,0.232422,
2011-04-07, 02:58:04,VALID,1004.18,VALID,0,VALID,95.628,VALID,0.100563,VALID,25.0839,VALID,300,VALID,0.5125,
2011-04-07, 02:59:04,VALID,1004.18,VALID,0,VALID,95.5365,VALID,0,VALID,25.0644,VALID,270,VALID,0.579297,
2011-04-07, 03:00:04,VALID,1004.19,VALID,0,VALID,95.5746,VALID,0,VALID,25.0858,VALID,270,VALID,0.158594,
2011-04-07, 03:01:04,VALID,1004.26,VALID,0,VALID,96.2536,VALID,0,VALID,25.0644,VALID,270,VALID,0.0640625,
2011-04-07, 03:02:04,VALID,1004.3,VALID,0,VALID,96.307,VALID,0,VALID,25.0663,VALID,270,VALID,0.217187,
2011-04-07, 03:03:04,VALID,1004.35,VALID,0,VALID,96.6579,VALID,0,VALID,25.045,VALID,269,VALID,0.660547,
2011-04-07, 03:04:04,VALID,1004.39,VALID,0,VALID,97.2682,VALID,0,VALID,25.0255,VALID,270,VALID,0.141797,
2011-04-07, 03:05:04,VALID,1004.45,VALID,0,VALID,97.8404,VALID,0,VALID,25.0255,VALID,270,VALID,0.135937,
2011-04-07, 03:06:04,VALID,1004.47,VALID,0,VALID,97.4589,VALID,0,VALID,25.006,VALID,260,VALID,0.631641,
2011-04-07, 03:07:04,VALID,1004.5,VALID,0,VALID,99.3814,VALID,0,VALID,25.0469,VALID,342,VALID,0.326953,
2011-04-07, 03:08:04,VALID,1004.54,VALID,0,VALID,99.9383,VALID,0.100563,VALID,25.045,VALID,340,VALID,0.26875,
2011-04-07, 03:09:04,VALID,1004.58,VALID,0,VALID,101.38,VALID,0.100563,VALID,25.045,VALID,340,VALID,0.208984,
2011-04-07, 03:10:04,VALID,1004.62,VALID,0,VALID,102.135,VALID,0.100563,VALID,25.045,VALID,324,VALID,0.183203,
2011-04-07, 03:11:04,VALID,1004.59,VALID,0,VALID,102.601,VALID,0.100563,VALID,25.0644,VALID,281,VALID,0.508984,
2011-04-07, 03:12:04,VALID,1004.62,VALID,0,VALID,102.174,VALID,0.100563,VALID,25.0431,VALID,285,VALID,0.191406,
2011-04-07, 03:13:04,VALID,1004.58,VALID,0,VALID,103.844,VALID,0.100563,VALID,25.0625,VALID,285,VALID,0.230859,
2011-04-07, 03:14:04,VALID,1004.6,VALID,0,VALID,103.44,VALID,0,VALID,25.0858,VALID,287,VALID,0.260156,
2011-04-07, 03:15:04,VALID,1004.54,VALID,0,VALID,103.951,VALID,0,VALID,25.0839,VALID,286,VALID,0.129688,
2011-04-07, 03:16:04,VALID,1004.52,VALID,0,VALID,104,VALID,0,VALID,25.0839,VALID,346,VALID,0.596484,
2011-04-07, 03:17:04,VALID,1004.51,VALID,0,VALID,104,VALID,0,VALID,25.0858,VALID,327,VALID,0.466797,
2011-04-07, 03:18:04,VALID,1004.54,VALID,0,VALID,104,VALID,0,VALID,25.0644,VALID,272,VALID,0.16875,
2011-04-07, 03:19:04,VALID,1004.51,VALID,0,VALID,104,VALID,0,VALID,25.0839,VALID,267,VALID,0.337891,
2011-04-07, 03:20:04,VALID,1004.52,VALID,0,VALID,103.715,VALID,0,VALID,25.0858,VALID,284,VALID,0.409375,
2011-04-07, 03:21:04,VALID,1004.51,VALID,0,VALID,104,VALID,0,VALID,25.0839,VALID,283,VALID,0.316016,
2011-04-07, 03:22:04,VALID,1004.51,VALID,0,VALID,104,VALID,0,VALID,25.0839,VALID,281,VALID,0.0046875,
2011-04-07, 03:23:04,VALID,1004.5,VALID,0,VALID,104,VALID,0,VALID,25.1053,VALID,281,VALID,0.317187,
2011-04-07, 03:24:04,VALID,1004.49,VALID,0,VALID,104,VALID,0,VALID,25.0644,VALID,281,VALID,0.361719,
2011-04-07, 03:25:04,VALID,1004.5,VALID,0,INVALID,110.924,VALID,0.100563,VALID,25.0644,VALID,281,VALID,0.1375,
2011-04-07, 03:26:04,VALID,1004.51,VALID,0,INVALID,112.526,VALID,0,VALID,25.0644,VALID,232,VALID,0.674609,
2011-04-07, 03:27:04,VALID,1004.48,VALID,0,INVALID,163.571,VALID,0,VALID,25.0663,VALID,228,VALID,0.594531,
2011-04-07, 03:28:04,VALID,1004.5,VALID,0,INVALID,163.632,VALID,0,VALID,25.0469,VALID,228,VALID,0.453125,
2011-04-07, 03:29:04,VALID,1004.51,VALID,0,INVALID,163.639,VALID,0,VALID,24.9885,VALID,228,VALID,0.212891,
2011-04-07, 03:30:04,VALID,1004.52,VALID,0,INVALID,163.632,VALID,0,VALID,24.9476,VALID,229,VALID,0.00703125,
2011-04-07, 03:31:04,VALID,1004.53,VALID,0,INVALID,163.617,VALID,0,VALID,24.9282,VALID,229,VALID,0,
2011-04-07, 03:32:04,VALID,1004.45,VALID,0,INVALID,163.639,VALID,0,VALID,24.9282,VALID,228,VALID,0.0261719,
2011-04-07, 03:33:04,VALID,1004.45,VALID,0,INVALID,163.632,VALID,0,VALID,24.9087,VALID,228,VALID,0.329688,
2011-04-07, 03:34:04,VALID,1004.42,VALID,0,INVALID,163.632,VALID,0,VALID,24.93,VALID,228,VALID,0.483984,
2011-04-07, 03:35:04,VALID,1004.44,VALID,0,INVALID,163.662,VALID,0,VALID,24.9087,VALID,228,VALID,0.485938,
2011-04-07, 03:36:04,VALID,1004.43,VALID,0,INVALID,163.632,VALID,0,VALID,24.9495,VALID,228,VALID,0.432422,
2011-04-07, 03:37:04,VALID,1004.43,VALID,0,INVALID,163.639,VALID,0,VALID,24.93,VALID,228,VALID,0.401172,
2011-04-07, 03:38:04,VALID,1004.44,VALID,0,INVALID,163.662,VALID,0,VALID,24.9282,VALID,228,VALID,0.440234,
2011-04-07, 03:39:04,VALID,1004.43,VALID,0,INVALID,163.655,VALID,0,VALID,24.93,VALID,228,VALID,0.372656,
2011-04-07, 03:40:04,VALID,1004.44,VALID,0,INVALID,163.662,VALID,0,VALID,24.9495,VALID,228,VALID,0.414453,
2011-04-07, 03:41:04,VALID,1004.42,VALID,0,INVALID,163.655,VALID,0,VALID,24.93,VALID,228,VALID,0.420312,
2011-04-07, 03:42:04,VALID,1004.4,VALID,0,INVALID,163.655,VALID,0,VALID,24.8697,VALID,228,VALID,0.4125,